Regional Weather Roundup
Issued by NWS Bismarck, ND

Home | Current Version | Previous Version | Text Only | Print | Product List | Glossary On
Versions: 1 2 3 4 5 6 7 8 9 10 11 12 13 14 15 16 17 18 19 20 21 22 23 24 25 26 27 28 29 30 31 32 33 34 35 36 37 38 39 40 41 42 43 44 45 46 47 48 49 50
530
ASUS43 KBIS 270510
RWRBIS

NWR BROADCAST TEXT
NATIONAL WEATHER SERVICE BISMARCK ND
1200 AM CDT FRI MAY 27 2016

NOTE: "FAIR" INDICATES FEW OR NO CLOUDS BELOW 12,000 FEET WITH NO
SIGNIFICANT WEATHER AND/OR OBSTRUCTIONS TO VISIBILITY.


CITY           SKY/WX    TMP DP  RH WIND       PRES   REMARKS
WILLISTON      CLOUDY    51  47  86 N9        29.86R
MINOT          CLOUDY    57  53  86 CALM      29.83S
MINOT AFB      LGT RAIN  55  53  92 NW5       29.83R
BISMARCK       CLEAR     56  50  80 N6        29.82F
DICKINSON      CLOUDY    49  43  80 CALM      29.84S
GARRISON         N/A     53  50  89 CALM      29.84S
HETTINGER ARPT CLEAR     41  37  86 CALM      29.87F
JAMESTOWN      MOCLDY    56  53  90 CALM      29.79S
BEACH          FAIR      48  48 100 CALM      29.89R
CARRINGTON     FAIR      52  50  93 NW7       29.83R
HAZEN          CLOUDY    48  48 100 CALM      29.86S
LINTON           N/A     54  54 100 E3          N/A
MANDAN         FAIR      52  48  87 N7        29.83F
OAKES            N/A    N/A N/A N/A MISG        N/A
RUGBY          MOCLDY    52  52 100 W6        29.82S
STANLEY        CLOUDY    54  54 100 NE6G12    29.89R
WATFORD CITY   FAIR      48  48 100 CALM      29.86R
$$

CITY           SKY/WX    TMP DP  RH WIND       PRES   REMARKS
GRAND FORKS    MOCLDY    58  55  90 CALM      29.78F
GRAND FORKS AF PTCLDY    55  55  99 N2        29.78S
DEVILS LAKE    CLEAR     55  54  96 SW3       29.81R
FARGO          MOCLDY    66  53  63 N8        29.77R
CAVALIER       FAIR      55  55 100 SW6       29.77S
GRAFTON        FAIR      54  54 100 SW6       29.80R
GWINNER        FAIR      63  54  72 S16       29.81R
LANGDON        FAIR      52  52 100 NW7       29.79S
ROLLA          CLOUDY    55  55 100 N3        29.82S
WALHALLA       FAIR      57  57 100 W3        29.78R
$$

CITY           SKY/WX    TMP DP  RH WIND       PRES   REMARKS
ABERDEEN       MOCLDY    61  55  81 S9        29.82S
MOBRIDGE       CLEAR     59  47  64 NW8       29.79R
BUFFALO          N/A     56  42  59 NW5       29.82R
RAPID CITY     CLEAR     53  44  71 N12       29.87S
GLASGOW        CLOUDY    54  49  83 NE12      29.87R
SIDNEY         CLOUDY    54  51  90 N7        29.84F
WOLF POINT     MOCLDY    56  50  80 NE8       29.87R
GLENDIVE       MOCLDY    50  46  87 NW8       29.88S
MILES CITY     CLEAR     53  48  83 W5        29.86F
BAKER          CLOUDY    48  45  89 CALM      29.88R
$$

CITY           SKY/WX    TMP DP  RH WIND       PRES   REMARKS
BILLINGS       CLEAR     54  44  69 E5        29.93S
GREAT FALLS    MOCLDY    50  44  80 SW8       29.92F
REGINA         MOCLDY    52  50  93 W7        29.87S
ESTEVAN        CLOUDY    50  48  93 CALM      29.86R FOG
$$





USA.gov is the U.S. government's official web portal to all federal, state and local government web resources and services.